Weather reports worldwide

Advertisment
Chassiron, France (7314): temperature & dewpoint: 10.09.2019 05:00:00 - 16.09.2019 05:00:00 (CEST)Chassiron, France (7314): wind speed & gusts: 10.09.2019 05:00:00 - 16.09.2019 05:00:00 (CEST)Chassiron, France (7314): wind direction: 10.09.2019 05:00:00 - 16.09.2019 05:00:00 (CEST)Chassiron, France (7314): reduced air pressure: 10.09.2019 05:00:00 - 16.09.2019 05:00:00 (CEST)Chassiron, France (7314): visibility: 10.09.2019 05:00:00 - 16.09.2019 05:00:00 (CEST)Chassiron, France (7314): precipitation: 10.09.2019 05:00:00 - 16.09.2019 05:00:00 (CEST)
Date & Time tt [°C] td [°C] ff [km/h] ff [kn] fx [km/h] fx [kn] dd ppp [hPa] vv [km] rr [mm]
16.09.2019 05:00:00 - - - - - - - - - -
16.09.2019 04:00:00 18,8 15,3 11 6 16 8 NNE 1020,5 - 0,0
16.09.2019 03:00:00 19,4 15,7 10 5 17 9 NNE 1020,7 - 0,0
16.09.2019 02:00:00 19,8 15,9 10 5 19 11 NE 1020,7 - 0,0
16.09.2019 01:00:00 20,8 16,0 15 8 23 12 NE 1020,7 - 0,0
16.09.2019 00:00:00 20,4 16,6 16 9 21 11 NNE 1020,8 - 0,0
15.09.2019 23:00:00 20,7 16,9 13 7 20 11 NNE 1020,9 20 0,0
15.09.2019 22:00:00 20,5 17,1 15 8 24 13 N 1020,8 - 0,0
15.09.2019 21:00:00 20,6 16,6 18 10 29 16 NNW 1020,5 - 0,0
15.09.2019 20:00:00 20,7 16,3 23 12 33 18 NNW 1020,1 - 0,0
15.09.2019 19:00:00 21,3 16,7 24 13 31 17 NW 1020,0 - 0,0
15.09.2019 18:00:00 21,4 16,8 16 9 26 14 NW 1020,4 - 0,0
15.09.2019 17:00:00 21,4 17,0 18 10 22 12 NW 1020,9 20 0,0
15.09.2019 16:00:00 23,3 17,5 9 5 16 9 WNW 1021,5 - 0,0
15.09.2019 15:00:00 23,3 17,7 9 5 14 7 NW 1022,2 - 0,0
15.09.2019 14:00:00 24,9 18,3 5 3 11 6 NW 1022,7 - 0,0
15.09.2019 13:00:00 24,9 17,1 6 4 14 8 NE 1023,2 - 0,0
15.09.2019 12:00:00 22,9 17,4 9 5 18 10 ENE 1023,6 - 0,0
15.09.2019 11:00:00 21,3 16,9 11 6 22 12 ENE 1023,8 - 0,0
15.09.2019 10:00:00 20,4 16,8 11 6 18 10 ENE 1023,6 - 0,0
15.09.2019 09:00:00 19,0 16,4 10 6 16 9 NE 1023,3 - 0,0
15.09.2019 08:00:00 18,5 16,1 11 6 19 10 ENE 1023,2 15 0,0
15.09.2019 07:00:00 18,6 16,4 10 5 18 10 ENE 1023,0 - 0,0
15.09.2019 06:00:00 18,7 16,3 10 6 16 9 ENE 1023,1 - 0,0
15.09.2019 05:00:00 19,1 16,3 10 5 19 11 ENE 1023,4 - 0,0
15.09.2019 04:00:00 19,2 16,2 11 6 16 9 ENE 1023,6 - 0,0
15.09.2019 03:00:00 19,1 16,3 11 6 18 10 NE 1024,1 - 0,0
15.09.2019 02:00:00 20,2 16,4 10 5 15 8 NE 1024,3 - 0,0
15.09.2019 01:00:00 21,0 16,8 11 6 16 8 E 1024,2 - 0,0
15.09.2019 00:00:00 21,8 16,7 9 5 16 9 NNE 1024,3 - 0,0
14.09.2019 23:00:00 20,9 17,1 11 6 19 11 ENE 1024,8 20 0,0
14.09.2019 22:00:00 20,8 17,6 11 6 23 12 NE 1024,7 - 0,0
14.09.2019 21:00:00 20,1 17,3 12 6 19 10 N 1024,4 - 0,0
14.09.2019 20:00:00 20,6 16,8 12 7 19 10 NW 1024,1 - 0,0
14.09.2019 19:00:00 22,3 17,4 6 3 15 8 NW 1024,2 - 0,0
14.09.2019 18:00:00 22,2 17,1 11 6 16 8 WNW 1024,2 - 0,0
14.09.2019 17:00:00 23,1 16,9 9 5 13 7 NNW 1024,4 20 0,0
14.09.2019 16:00:00 22,9 16,7 5 3 16 9 NNW 1024,9 - 0,0
14.09.2019 15:00:00 22,2 17,1 8 4 13 7 NNW 1025,3 - 0,0
14.09.2019 14:00:00 23,2 17,2 6 4 14 8 NE 1025,9 - 0,0
14.09.2019 13:00:00 22,7 17,4 9 5 18 10 NE 1026,5 - 0,0
14.09.2019 12:00:00 21,5 16,9 10 6 31 17 ENE 1027,0 - 0,0
14.09.2019 11:00:00 20,5 16,7 14 7 33 18 ENE 1026,7 - 0,0
14.09.2019 10:00:00 18,8 16,0 14 7 31 17 ENE 1026,8 - 0,0
14.09.2019 09:00:00 18,4 15,6 17 9 29 16 ENE 1026,8 - 0,0
14.09.2019 08:00:00 18,3 15,5 17 9 28 15 ENE 1026,6 12 0,0
14.09.2019 07:00:00 18,5 15,6 17 9 27 15 ENE 1026,3 - 0,0
14.09.2019 06:00:00 18,6 15,7 16 8 25 13 ENE 1026,1 - 0,0
14.09.2019 05:00:00 18,6 16,0 17 9 29 15 NE 1026,4 - 0,0
14.09.2019 04:00:00 18,5 15,6 19 10 29 15 NNE 1026,6 - 0,0
14.09.2019 03:00:00 19,0 15,9 18 10 27 15 NE 1027,0 - 0,0
14.09.2019 02:00:00 18,4 15,6 14 8 23 12 NNE 1027,4 20 0,0
14.09.2019 01:00:00 19,4 16,1 19 10 29 16 NNE 1027,4 - 0,0
14.09.2019 00:00:00 20,1 16,5 23 12 29 15 NNE 1027,4 - 0,0
13.09.2019 23:00:00 20,4 16,6 22 12 28 15 NNE 1027,4 20 0,0
13.09.2019 22:00:00 21,0 16,4 23 12 27 15 NNE 1027,6 - 0,0
13.09.2019 21:00:00 21,3 16,7 19 10 22 12 NNE 1027,5 - 0,0
13.09.2019 20:00:00 22,3 16,8 17 9 23 13 NNE 1027,3 20 0,0
13.09.2019 19:00:00 22,2 16,2 11 6 15 8 N 1027,6 - 0,0
13.09.2019 18:00:00 24,2 16,5 6 4 20 11 NE 1028,0 - 0,0
13.09.2019 17:00:00 22,5 16,1 13 7 22 12 N 1027,6 20 0,0
13.09.2019 16:00:00 22,4 16,4 15 8 24 13 N 1028,3 - 0,0
13.09.2019 15:00:00 22,0 16,5 13 7 21 12 N 1029,3 - 0,0
13.09.2019 14:00:00 21,6 17,2 13 7 18 10 N 1029,9 20 0,0
13.09.2019 13:00:00 22,2 17,8 11 6 20 11 N 1030,2 - 0,0
13.09.2019 12:00:00 21,5 18,1 16 9 25 13 NNE 1030,4 - 0,0
13.09.2019 11:00:00 20,2 17,6 14 8 24 13 NNE 1031,0 20 0,0
13.09.2019 10:00:00 18,7 16,8 15 8 21 12 NNE 1031,2 - 0,0
13.09.2019 09:00:00 17,3 16,2 11 6 16 9 NNE 1031,1 - 0,0
13.09.2019 08:00:00 17,2 16,2 11 6 21 12 NE 1031,3 15 0,0
13.09.2019 07:00:00 16,8 15,8 13 7 23 12 NE 1031,0 - 0,0
13.09.2019 06:00:00 16,6 15,6 16 9 23 13 NNE 1030,8 - 0,0
13.09.2019 05:00:00 16,7 15,7 11 6 23 13 NNE 1031,1 20 0,0
13.09.2019 04:00:00 16,5 15,5 19 10 27 14 N 1031,1 - 0,0
13.09.2019 03:00:00 16,5 15,5 15 8 24 13 N 1031,5 - 0,0
13.09.2019 02:00:00 16,7 15,7 18 10 26 14 NNW 1032,0 - 0,0
13.09.2019 01:00:00 17,0 15,9 18 10 26 14 NNW 1031,7 - 0,0
13.09.2019 00:00:00 17,5 16,2 18 10 29 16 N 1031,9 - 0,0
12.09.2019 23:00:00 18,0 16,5 24 13 34 19 NNW 1032,0 20 0,0
12.09.2019 22:00:00 17,8 16,7 21 12 32 17 NNW 1031,8 - 0,0
12.09.2019 21:00:00 17,8 16,5 24 13 33 18 NNW 1031,6 - 0,0
12.09.2019 20:00:00 17,9 16,4 22 12 32 17 NW 1031,5 - 0,0
12.09.2019 19:00:00 18,1 16,3 17 9 26 14 NW 1031,6 - 0,0
12.09.2019 18:00:00 18,3 16,1 14 8 20 11 NW 1031,8 - 0,0
12.09.2019 17:00:00 18,1 15,9 16 9 21 11 NW 1032,2 - 0,0
12.09.2019 16:00:00 18,1 15,9 14 8 19 11 NW 1032,8 - 0,0
12.09.2019 15:00:00 18,2 15,3 12 6 16 9 NNW 1033,2 - 0,0
12.09.2019 14:00:00 18,2 15,4 7 4 13 7 NW 1033,7 20 0,0
12.09.2019 13:00:00 17,6 15,4 5 3 11 6 NW 1033,9 - 0,0
12.09.2019 12:00:00 17,3 15,5 3 2 9 5 N 1034,0 - 0,0
12.09.2019 11:00:00 16,9 15,4 4 2 14 8 NNE 1033,5 - 0,0
12.09.2019 10:00:00 16,4 15,1 11 6 23 13 NNE 1032,8 - 0,0
12.09.2019 09:00:00 16,3 15,2 13 7 25 14 NNE 1032,2 - 0,0
12.09.2019 08:00:00 16,2 14,9 18 10 30 16 N 1031,6 12 0,0
12.09.2019 07:00:00 16,1 15,1 11 6 14 8 N 1031,0 - 0,0
12.09.2019 06:00:00 15,8 14,7 7 4 14 8 NNE 1030,9 - 0,0
12.09.2019 05:00:00 15,9 14,8 10 5 15 8 NNE 1031,2 - 0,0
12.09.2019 04:00:00 16,0 14,7 10 6 26 14 N 1031,2 - 0,0
12.09.2019 03:00:00 16,1 15,0 18 10 25 13 NNW 1031,2 - 0,0
12.09.2019 02:00:00 16,1 15,0 18 10 27 15 NNW 1031,0 20 0,0
12.09.2019 01:00:00 16,1 15,0 20 11 29 15 NNW 1030,5 - 0,0
12.09.2019 00:00:00 16,3 14,8 22 12 31 17 NNW 1030,5 - 0,0
11.09.2019 23:00:00 16,4 14,6 19 10 31 17 NW 1030,4 - 0,0
11.09.2019 22:00:00 16,5 14,1 21 11 34 19 NW 1030,0 - 0,0
11.09.2019 21:00:00 16,4 13,7 23 12 37 20 NW 1029,8 - 0,0
11.09.2019 20:00:00 16,5 13,4 25 14 36 19 NW 1029,0 15 0,0
11.09.2019 19:00:00 17,0 12,7 24 13 36 19 NW 1029,0 - 0,0
11.09.2019 18:00:00 17,1 12,2 25 14 34 19 WNW 1028,8 - 0,0
11.09.2019 17:00:00 17,2 14,3 22 12 33 18 WNW 1028,8 - 0,0
11.09.2019 16:00:00 17,1 14,6 25 14 34 18 NW 1028,6 - 0,0
11.09.2019 15:00:00 17,2 14,7 21 11 29 16 NW 1028,7 - 0,0
11.09.2019 14:00:00 17,2 14,7 20 11 27 15 NW 1028,8 - 0,0
11.09.2019 13:00:00 17,3 14,9 14 8 22 12 NW 1028,5 - 0,0
11.09.2019 12:00:00 17,3 14,0 11 6 19 11 NW 1028,4 - 0,0
11.09.2019 11:00:00 16,5 13,6 11 6 16 9 NNW 1028,2 15 0,0
11.09.2019 10:00:00 15,8 13,5 11 6 17 9 N 1027,4 - 0,0
11.09.2019 09:00:00 15,4 13,2 11 6 19 10 N 1026,8 - 0,0
11.09.2019 08:00:00 15,1 13,1 14 8 22 12 NNE 1026,0 - 0,0
11.09.2019 07:00:00 15,1 13,3 18 10 26 14 NNE 1025,2 - 0,0
11.09.2019 06:00:00 15,4 13,4 19 11 27 15 N 1024,5 - 0,0
11.09.2019 05:00:00 15,4 13,1 23 12 32 17 NNE 1024,3 - 0,0
11.09.2019 04:00:00 15,6 12,9 23 12 32 18 N 1024,3 - 0,0
11.09.2019 03:00:00 15,9 12,6 22 12 33 18 NNE 1024,1 - 0,0
11.09.2019 02:00:00 16,3 12,8 24 13 34 18 N 1024,2 - 0,0
11.09.2019 01:00:00 16,5 13,2 22 12 30 16 NNW 1023,8 - 0,0
11.09.2019 00:00:00 16,7 13,8 22 12 30 16 NNW 1023,3 - 0,0
10.09.2019 23:00:00 17,3 14,4 17 9 27 15 NNW 1022,7 20 0,0
10.09.2019 22:00:00 18,2 13,1 18 10 26 14 N 1022,0 - 0,0
10.09.2019 21:00:00 18,7 13,1 20 11 29 16 N 1021,0 - 0,0
10.09.2019 20:00:00 19,3 13,0 17 9 25 13 N 1020,3 - 0,0
10.09.2019 19:00:00 19,0 14,9 15 8 23 12 NW 1019,6 - 0,0
10.09.2019 18:00:00 20,1 12,8 11 6 23 13 NNW 1019,0 - 0,0
10.09.2019 17:00:00 20,4 11,9 19 10 29 15 N 1018,7 20 0,0
10.09.2019 16:00:00 20,2 12,2 19 10 27 15 N 1018,6 - 0,0
10.09.2019 15:00:00 19,1 12,1 16 8 23 13 N 1018,4 - 0,0
10.09.2019 14:00:00 18,9 12,9 16 9 27 14 NNE 1018,1 20 0,0
10.09.2019 13:00:00 17,9 13,0 9 5 27 14 NNE 1017,7 - 0,0
10.09.2019 12:00:00 16,9 12,8 15 8 30 16 ENE 1017,0 - 0,0
10.09.2019 11:00:00 15,0 12,9 20 11 36 19 NNE 1016,2 - 0,0
10.09.2019 10:00:00 14,2 12,8 22 12 38 21 ENE 1015,2 - 0,0
10.09.2019 09:00:00 13,8 11,8 26 14 40 22 NE 1013,8 - 0,0
10.09.2019 08:00:00 13,7 12,3 25 14 35 19 NNE 1012,7 8 0,0
10.09.2019 07:00:00 14,0 12,2 19 10 28 15 NNE 1011,4 - 0,0
10.09.2019 06:00:00 14,3 12,3 12 6 30 16 NNE 1010,8 - 0,2
10.09.2019 05:00:00 15,1 12,0 19 10 34 18 WNW 1010,8 - 0,0

tt = temperature
td = dewpoint
ff = wind speed
fx = gusts
dd = wind direction
ppp = reduced air pressure
vv = visibility
rr = precipitation

Next stations